Powrót do katalogu

STARLINK-3451

AktywnyŁącznośćVLEO
NORAD 51749·PAYLOAD·🇺🇸 United States

Wystrzelony Feb 21, 2022 z Cape Canaveral Space Force Station

Loading…

Następne Przeloty (najbliższe 24 godziny)

TLE

ŚwieżeSource: CelesTrak SupGP

Epoka: Sep 15, 2026, 02:09 UTC

1 51749C 22016AM  26258.09006944 -.00019002  00000+0 -61114-3 0  2589
2 51749  53.1568 175.9921 0001392  90.7336  29.6405 15.31707356    18

Śledź STARLINK-3451 w czasie rzeczywistym z AllMySat

Download on the App Store